www.pogodaiklimat.ru

Погода и климат >> Архив погоды >> Индия >> Махараштра >> Нагпур


ПОГОДА в Нагпуре

  • Прогноз погоды в Нагпуре
  • Монитор погоды в Нагпуре

АРХИВ ПОГОДЫ в Нагпуре

Время (UTC), дата Ветер
(напр.,м/с)
 
Видим.   Явления Облачность Т
(С)
Тd
(С)
f
(%)
Тe
(С)
Тes
(С)
Комфортность P
(гПа)
Po
(гПа)
Тmin
(С)
Tmax
(С)
R
(мм)
R24
(мм)
S
(см)
18 19.05 штиль 0 2000 м мгла 4/4 600 м
[Sc Ac trans]
+32.4 +20.1 48 +39 +39 очень
душно
1006.6 972.3
21 19.05 З 2 2000 м мгла ясно +29.4 +18.6 52 +34 +34 очень
душно
1005.9 971.3
00 20.05 С 1 4000 м мгла ясно +28.2 +18.6 56 +33 +33 очень
душно
1006.5 971.7
03 20.05 С 1 4000 м мгла ясно +36.2 +20.5 40 +43 +52 опасность
перегрева
1007.3 973.4 +28.2
06 20.05 В 3 4000 м 1/0
[Ac trans]
+41.2 +17.9 26 +44 +63 опасность
перегрева
1006.7 973.3
09 20.05 СВ 2 4000 м мгла 5/5 600 м
[Cu Sc]
+43.4 +23.0 32 +52 +61 опасность
перегрева
1003.1 970.1
12 20.05 С 1 4000 м мгла 8/6 600 м
[Cu Sc Ac trans]
+42.0 +24.1 37 +53 +54 опасность
перегрева
1001.9 968.8 +44.2
15 20.05 штиль 0 4000 м мгла 5/3 600 м
[Sc Ac trans]
+36.0 +22.4 46 +45 +45 опасность
перегрева
1004.4 970.6
18 20.05 С 2 2000 м мгла 6/4 600 м
[Sc Ac trans]
+35.0 +22.6 49 +45 +45 опасность
перегрева
1005.6 971.6
21 20.05 С 1 2000 м мгла 5/3 600 м
[Sc Ac trans]
+32.4 +20.8 50 +39 +39 очень
душно
1004.2 970.0
00 21.05 С 1 2000 м мгла 4/0
[Ac trans]
+30.4 +19.4 52 +36 +36 очень
душно
1005.2 970.7
03 21.05 С 1 4000 м мгла ясно +37.8 +22.2 41 +46 +56 опасность
перегрева
1005.5 971.8 +29.5
06 21.05 СВ 3 4000 м мгла ясно +42.6 +24.8 37 +54 +74 опасность
перегрева
1005.1 971.9
09 21.05 З 2 4000 м мгла 6/6 600 м
[Cu Sc]
+45.0 +23.7 30 +54 +61 опасность
перегрева
1001.8 969.0
12 21.05 В 2 4000 м мгла 8/6 600 м
[Cu Sc Ac trans]
+43.4 +22.3 30 +51 +51 опасность
перегрева
1000.3 967.4 +45.6
15 21.05 В 4 2000 м мгла 9/5 600 м
[Cu Sc Ac trans]
+39.0 +15.9 26 +41 +41 опасность
перегрева
1003.3 969.8 0.0
18 21.05 В 2 2000 м мгла 4/3 600 м
[Sc Ac trans]
+34.6 +18.4 38 +39 +39 очень
душно
1005.2 971.2 0.0
21 21.05 Ю 4 2000 м мгла 4/3 600 м
[Sc Ac trans]
+34.4 +18.5 39 +39 +39 очень
душно
1004.4 970.4 0.0
00 22.05 С 1 2000 м мгла 4/0
[Ac trans Ci sp]
+31.6 +18.3 45 +36 +36 очень
душно
1005.2 970.9 0.0
03 22.05 Ю 2 4000 м мгла ясно +36.4 +25.2 53 +50 +59 опасность
перегрева
1005.7 971.9 +30.3
06 22.05 З 3 4000 м ясно +42.4 +24.2 36 +53 +73 опасность
перегрева
1003.8 970.7
09 22.05 В 1 4000 м ясно +45.0 +9.8 13 +44 +62 опасность
перегрева
1001.3 968.5
12 22.05 З 4 4000 м 5/5 600 м
[Cu Sc]
+44.4 +12.7 16 +44 +45 опасность
перегрева
999.6 966.8 +46.0
15 22.05 ЮЗ 2 2000 м мгла 4/4 600 м
[Sc]
+37.0 +14.6 26 +38 +38 душно 1002.0 968.4
18 22.05 З 2 2000 м мгла 4/0
[Ac trans]
+35.0 +14.3 29 +36 +36 очень
жарко
1003.1 969.2
21 22.05 штиль 0 2000 м мгла 3/0
[Ac trans]
+34.6 +12.2 26 +35 +35 очень
жарко
1002.1 968.2
00 23.05 ЮВ 1 2000 м мгла 3/0
[Ac trans]
+31.0 +14.3 36 +33 +33 душно 1003.8 969.4
03 23.05 ЮЗ 3 4000 м мгла 4/4 600 м
[Sc Ac trans]
+38.0 +14.8 25 +39 +43 очень
душно
1005.8 972.1 +28.8
06 23.05 З 3 4000 м мгла ясно +42.2 +15.5 21 +43 +63 опасность
перегрева
1004.3 971.1
09 23.05 ЮЗ 4 4000 м 3/3 750 м
[Cu med, cong]
+45.0 +17.7 21 +48 +56 опасность
перегрева
1000.6 967.8
12 23.05 ЮЗ 3 4000 м мгла 5/4 600 м
[Cu Sc Ac trans]
+44.4 +15.3 19 +46 +47 опасность
перегрева
1000.3 967.5 +46.2
15 23.05 З 2 2000 м мгла 3/1 600 м
[Sc Ac trans]
+37.4 +13.8 25 +38 +38 душно 1001.1 967.5
18 23.05 Ю 2 2000 м мгла 1/0
[Ac trans]
+36.0 +19.1 37 +41 +41 опасность
перегрева
1002.9 969.1
21 23.05 ЮВ 3 2000 м мгла 1/0
[Ac trans]
+32.4 +16.6 39 +36 +36 очень
душно
1002.8 968.6
00 24.05 З 3 4000 м мгла 3/0
[Ac trans Ci fib]
+31.0 +19.1 49 +36 +36 очень
душно
1004.6 970.2
03 24.05 З 3 4000 м мгла ясно +39.0 +16.4 27 +41 +49 опасность
перегрева
1005.8 972.2 +29.7
06 24.05 З 6 4000 м мгла 1/1 750 м
[Cu hum]
+42.4 +15.8 21 +44 +52 опасность
перегрева
1004.7 971.5
09 24.05 З 4 4000 м 3/1 750 м
[Cu hum Ac trans]
+45.4 +13.5 16 +46 +55 опасность
перегрева
1001.5 968.7
12 24.05 ЮЗ 4 4000 м мгла 1/1 750 м
[Cu hum]
+44.0 +14.1 18 +45 +46 опасность
перегрева
1000.0 967.1 +46.0
15 24.05 ЮЗ 3 4000 м мгла ясно +37.8 +10.9 20 +37 +37 очень
жарко
1002.5 968.9
18 24.05 З 3 4000 м мгла ясно +35.0 +12.9 26 +35 +35 очень
жарко
1003.6 969.7
21 24.05 З 3 4000 м мгла ясно +33.6 +12.6 28 +34 +34 очень
жарко
1002.8 968.8
00 25.05 З 5 4000 м мгла ясно +32.4 +13.1 31 +33 +33 жарко 1003.7 969.5
03 25.05 СЗ 5 4000 м мгла ясно +37.8 +15.4 27 +39 +44 очень
душно
1004.4 970.8 +30.8
06 25.05 С 2 4000 м мгла ясно +42.6 +15.2 20 +43 +65 опасность
перегрева
1002.9 969.8
09 25.05 З 4 4000 м мгла 3/1 600 м
[Sc Ac trans]
+45.8 +12.6 15 +46 +55 опасность
перегрева
999.6 966.9
12 25.05 СЗ 4 4000 м мгла 4/4 600 м
[Cu Sc]
+43.6 +14.9 19 +44 +45 опасность
перегрева
998.5 965.7 +46.3
15 25.05 З 3 4000 м мгла ясно +39.4 +15.4 24 +40 +40 очень
душно
1000.7 967.3
18 25.05 З 2 2000 м мгла ясно +37.2 +15.4 28 +39 +39 очень
душно
1001.5 967.9
21 25.05 З 1 2000 м мгла ясно +32.4 +14.9 35 +34 +34 очень
жарко
1001.0 966.9
00 26.05 С 2 2000 м мгла ясно +32.2 +16.8 40 +36 +36 очень
душно
1002.0 967.8
03 26.05 СЗ 3 4000 м мгла ясно +38.4 +17.2 29 +41 +49 опасность
перегрева
1003.0 969.5 +30.2
06 26.05 С 3 4000 м мгла 1/1 600 м
[Sc]
+42.0 +16.5 23 +44 +61 опасность
перегрева
1001.8 968.7
09 26.05 З 6 4000 м мгла 5/5 600 м
[Cu Sc]
+45.0 +15.4 18 +46 +50 опасность
перегрева
999.4 966.7
12 26.05 З 4 4000 м мгла 5/5 600 м
[Cu Sc]
+44.6 +12.5 15 +44 +45 опасность
перегрева
998.0 965.3 +46.5
15 26.05 З 2 2000 м мгла 4/0
[Ac trans]
+39.6 +15.5 24 +41 +41 опасность
перегрева
1000.7 967.4

 

Местоположение метеостанции Нагпур (Махараштра, Индия): широта 21.10 долгота 79.05 высота над уровнем моря 310 м.

В архиве по умолчанию представлена погода в Нагпуре за последнюю неделю. Архивные данные за месяц целиком и за предыдущие месяцы, начиная с января 2011 года, Вы можете получить, выбрав интересующий диапазон дат из раскрывающегося списка и нажав кнопку "Ввод!".


*Определитесь, кто Вы:
робот инопланетянин человек

Внимание! Время в таблицах - всемирное. Для получения местного времени необходимо прибавить поправку, которая равна 5.5 ч.

Смотрите также архив погоды в соседних городах и на ближайших метеорологических станциях:

Погода в Вардхе (Махараштра, Индия) (68 км)
Погода в Брамапури (Махараштра, Индия) (100 км)
Погода в Чхиндваре (Мадхья-Прадеш, Индия) (111 км)
Погода в Сеони (Мадхья-Прадеш, Индия) (121 км)
Погода в Яватмале (Махараштра, Индия) (122 км)
Погода в Гондии (Махараштра, Индия) (126 км)
Погода в Чандрапуре (Махараштра, Индия) (128 км)
Погода в Амравати (Махараштра, Индия) (133 км)
Погода в Бетуле (Мадхья-Прадеш, Индия) (144 км)
Погода в Пачмарае (Мадхья-Прадеш, Индия) (165 км)

Пояснения к столбцам:

Ветер - указаны скорость ветра в м/с - средняя за 10 мин, порывы в срок и между сроками (в фигурных скобках) и направление, откуда дует ветер: С - северный, СВ - северо-восточный, В - восточный, ЮВ - юго-восточный, Ю - южный, ЮЗ - юго-западный, З - западный, СЗ - северо-западный.
Видимость - горизонтальная дальность видимости в метрах или километрах. При видимости от 1 до 10 км при отсутствии осадков обычно наблюдается дымка, при ухудшении видимости до 1 км и менее - туман. В сухую погоду видимость может ухудшаться дымом, пылью или мглою.
Явления - указаны атмосферные явления, наблюдавшиеся в срок или в последний час перед сроком; фигурными скобками обозначены явления, наблюдавшиеся между сроками (за 1-3 часа до срока); квадратными скобками обозначены град или гололедные отложения с указанием их диаметра в мм.
Облачность - указаны через наклонную черту общая и нижняя облачность в баллах и высота нижней границы облаков в метрах; квадратными скобками обозначены формы облаков: Ci - перистые, Cs - перисто-слоистые, Cc - перисто-кучевые, Ac - высококучевые, As - высокослоистые, Sc - слоисто-кучевые, Ns - слоисто-дождевые, Cu - кучевые, Cb - кучево-дождевые. Подробнее классификацию облаков см. в Атласе облаков (PDF).
T - Температура воздуха - температура, измеренная на высоте 2 м над землей.
Td - Температура точки росы - температура, при понижении до которой содержащийся в воздухе водяной пар достигнет насыщения.
f - Относительная влажность воздуха - влажноcть воздуха, измеренная на высоте 2 м над землей.
Te - Эффективная температура - температура, которую ощущает одетый по сезону человек в тени. Характеристика душности погоды. При расчете учитывается влияние влажности воздуха и скорости ветра на теплоощущения человека.
Tes - Эффективная температура на солнце - температура, которую ощущает человек, с поправкой на солнечный нагрев. Характеристика знойности погоды. Зависит от высоты солнца над горизонтом, облачности и скорости ветра. Ночью, в пасмурную погоду, а также при ветре 12 м/с и более поправка равна нулю.
P - Атмосферное давление - приведенное к уровню моря атмосферное давление.
Po - Атмосферное давление - измеренное на уровне метеостанции атмосферное давление.
Tmin - Минимальная температура - минимум температуры воздуха на высоте 2 м над землей.
Tmax - Максимальная температура - максимум температуры воздуха на высоте 2 м над землей.
R - Количество осадков - Количество выпавших осадков за период времени, мм. При наведении курсора мыши на число - период времени, за который выпало указанное количество осадков.
R24 - Количество осадков - Количество выпавших осадков за 24 часа, мм.
S - Снежный покров - Высота снежного покрова, см. При наведении курсора мыши на число - состояние снежного покрова и степень покрытия местности в баллах.